Weather in Vanch

Tajikistan     38°22′17″N   71°27′40″E
temp.,
°C
wind,
m/s
gust,
m/s
humid.,
%
clouds,
%
prec.,
mm/h
press.,
hPa
HPBL,
m
15 may, sat
sat1523:00+6wsw11411 0.3 1015289
02:00+4wsw00490 0.0 1015105
05:00+3n005568 0.0 101618
08:00+2wnw00455 0.0 1019477
11:00+6sw114120 0.0 10161108
14:00+9ssw2229100 0.0 10142155
17:00+5w4361100 0.6 1017393
20:00+6sw115220 0.6 1017490
16 may, sun
sun1623:00+5ssw11585 0.6 1018222
02:00+4ssw11580 0.0 1017122
05:00+3ne01630 0.0 101810
08:00+5wnw11500 0.0 1019709
11:00+9wsw22330 0.1 10161627
14:00+11ssw251894 0.0 10143584
17:00+11sw23253 0.0 10132508
20:00+9s3340100 0.0 1015664
17 may, mon
mon1723:00+8s2247100 0.0 1016222
02:00+7w115349 0.1 101735
05:00+5w11564 0.2 101812
08:00+7w11460 0.0 1019712
11:00+10wsw23313 0.1 10182155
14:00+12wnw2521100 0.0 10153404
17:00+11nne22315 0.1 10151540
20:00+11nne11330 0.0 10151099
18 may, tue
tue1823:00+9wsw214216 0.0 101646
02:00+7sw2243100 0.0 101742
05:00+6sw1145100 0.0 101710
08:00+8w1132100 0.0 1017692
11:00+11w2226100 0.0 10151850
14:00+12w442686 0.0 10132634
17:00+10wnw223791 0.2 10151196
20:00+9ssw324451 0.1 1015532
19 may, wed
wed1923:00+8sw2254100 0.3 1016299
02:00+7wsw2260100 0.5 101650
05:00+6w11650 0.8 101612
08:00+8wsw22500 0.1 1017749
11:00+11wsw23320 0.1 10152069
14:00+14wsw2518100 0.0 10113571
17:00+13nne232826 0.0 10121653
20:00+12wsw22270 0.0 1012499